When you browse on this site, cookies collect data to enhance your experience and personalize the content and advertising you see.
Visit our Privacy Policy to learn more. By continuing to use the site, you agree to this use of cookies and data.
  • In Sweden
  • List of Countries
  • For 7 days
  • Water Temperature
  • Satellite Maps
  • Weather Map
  • Weather Widgets
  • user-avatar
    Login

    Hourly Weather Ballerupa

    Today, 19 July, Friday

    Time Temperature Precipitation Wind Pressure Humidity
    00:00 +18°C° 0 mm 3 mps 756 mmHg 71%
    01:00 +18°C° 0 mm 3 mps 756 mmHg 71%
    02:00 +18°C° 0.2 mm 3 mps 756 mmHg 73%
    03:00 +18°C° 0.2 mm 4 mps 756 mmHg 76%
    04:00 +17°C° 0.2 mm 4 mps 756 mmHg 78%
    05:00 +18°C° 0 mm 4 mps 756 mmHg 78%
    06:00 +18°C° 0 mm 4 mps 756 mmHg 77%
    07:00 +19°C° 0 mm 4 mps 756 mmHg 77%
    08:00 +20°C° 0 mm 4 mps 756 mmHg 72%
    09:00 +21°C° 0 mm 5 mps 756 mmHg 66%
    10:00 +22°C° 0 mm 5 mps 756 mmHg 61%
    11:00 +22°C° 0.1 mm 5 mps 756 mmHg 60%
    12:00 +22°C° 0.1 mm 5 mps 756 mmHg 59%
    13:00 +23°C° 0.1 mm 5 mps 756 mmHg 58%
    14:00 +22°C° 0.3 mm 5 mps 756 mmHg 60%
    15:00 +22°C° 0.3 mm 5 mps 756 mmHg 63%
    16:00 +22°C° 0.3 mm 4 mps 756 mmHg 65%
    17:00 +22°C° 0.3 mm 4 mps 756 mmHg 69%
    18:00 +21°C° 0.3 mm 3 mps 756 mmHg 72%
    19:00 +21°C° 0.3 mm 3 mps 757 mmHg 76%
    20:00 +19°C° 0 mm 3 mps 757 mmHg 80%
    21:00 +18°C° 0 mm 2 mps 757 mmHg 85%
    22:00 +17°C° 0 mm 2 mps 757 mmHg 89%
    23:00 +18°C° 0 mm 1 mps 757 mmHg 90%

    Tomorrow, 20 July, Saturday

    Time Temperature Precipitation Wind Pressure Humidity
    00:00 +16°C° 0 mm 1 mps 757 mmHg 90%
    01:00 +16°C° 0 mm 1 mps 758 mmHg 91%
    02:00 +16°C° 0 mm 1 mps 758 mmHg 92%
    03:00 +16°C° 0 mm 1 mps 758 mmHg 92%
    04:00 +16°C° 0 mm 1 mps 758 mmHg 92%
    05:00 +18°C° 0 mm 1 mps 758 mmHg 90%
    06:00 +19°C° 0 mm 1 mps 758 mmHg 87%
    07:00 +20°C° 0 mm 1 mps 758 mmHg 84%
    08:00 +21°C° 0 mm 1 mps 758 mmHg 76%
    09:00 +22°C° 0 mm 1 mps 758 mmHg 69%
    10:00 +23°C° 0 mm 2 mps 758 mmHg 62%
    11:00 +23°C° 0 mm 2 mps 758 mmHg 60%
    12:00 +22°C° 0 mm 3 mps 758 mmHg 58%
    13:00 +22°C° 0 mm 3 mps 758 mmHg 57%
    14:00 +22°C° 0 mm 4 mps 757 mmHg 56%
    15:00 +22°C° 0 mm 4 mps 757 mmHg 54%
    16:00 +23°C° 0 mm 4 mps 757 mmHg 53%
    17:00 +22°C° 0 mm 5 mps 756 mmHg 56%
    18:00 +21°C° 0 mm 5 mps 756 mmHg 60%
    19:00 +20°C° 0 mm 6 mps 756 mmHg 63%
    20:00 +20°C° 0.1 mm 7 mps 756 mmHg 70%
    21:00 +18°C° 0.1 mm 7 mps 756 mmHg 77%
    22:00 +18°C° 0.1 mm 8 mps 756 mmHg 84%
    23:00 +17°C° 0 mm 7 mps 756 mmHg 87%

    Day after tomorrow, 21 July, Sunday

    Time Temperature Precipitation Wind Pressure Humidity
    00:00 +16°C° 0 mm 5 mps 756 mmHg 91%
    01:00 +17°C° 0 mm 4 mps 756 mmHg 94%
    02:00 +17°C° 0 mm 4 mps 756 mmHg 95%
    03:00 +15°C° 0 mm 4 mps 756 mmHg 95%
    04:00 +16°C° 0 mm 3 mps 756 mmHg 96%
    05:00 +17°C° 0 mm 3 mps 756 mmHg 92%
    06:00 +18°C° 0 mm 3 mps 756 mmHg 88%
    07:00 +19°C° 0 mm 3 mps 756 mmHg 85%
    08:00 +20°C° 0.7 mm 3 mps 757 mmHg 81%
    09:00 +21°C° 0.7 mm 3 mps 757 mmHg 77%
    10:00 +21°C° 0.7 mm 3 mps 757 mmHg 72%
    11:00 +22°C° 0.9 mm 3 mps 758 mmHg 69%
    12:00 +23°C° 0.9 mm 4 mps 758 mmHg 66%
    13:00 +23°C° 0.9 mm 4 mps 758 mmHg 64%
    14:00 +23°C° 0 mm 5 mps 758 mmHg 63%
    15:00 +23°C° 0 mm 5 mps 758 mmHg 63%
    16:00 +23°C° 0 mm 6 mps 758 mmHg 63%
    17:00 +22°C° 0 mm 6 mps 759 mmHg 67%
    18:00 +21°C° 0 mm 6 mps 759 mmHg 71%
    19:00 +20°C° 0 mm 5 mps 759 mmHg 75%
    20:00 +19°C° 0 mm 5 mps 760 mmHg 79%
    21:00 +17°C° 0 mm 5 mps 760 mmHg 82%
    22:00 +16°C° 0 mm 5 mps 761 mmHg 86%
    23:00 +16°C° 0 mm 5 mps 761 mmHg 83%

    22 July, Monday

    Time Temperature Precipitation Wind Pressure Humidity
    00:00 +15°C° 0 mm 5 mps 761 mmHg 81%
    01:00 +15°C° 0 mm 5 mps 761 mmHg 79%
    02:00 +15°C° 0 mm 5 mps 761 mmHg 77%
    03:00 +15°C° 0 mm 5 mps 762 mmHg 74%
    04:00 +15°C° 0 mm 5 mps 762 mmHg 72%
    05:00 +16°C° 0 mm 5 mps 762 mmHg 71%
    06:00 +16°C° 0 mm 5 mps 762 mmHg 71%
    07:00 +17°C° 0 mm 5 mps 763 mmHg 70%
    08:00 +19°C° 0 mm 6 mps 763 mmHg 67%
    09:00 +19°C° 0 mm 6 mps 763 mmHg 64%
    10:00 +20°C° 0 mm 6 mps 764 mmHg 61%
    11:00 +21°C° 0 mm 6 mps 764 mmHg 61%
    12:00 +22°C° 0 mm 6 mps 764 mmHg 61%
    13:00 +22°C° 0 mm 6 mps 764 mmHg 61%
    14:00 +22°C° 0 mm 6 mps 764 mmHg 63%
    15:00 +22°C° 0 mm 5 mps 764 mmHg 66%
    16:00 +22°C° 0 mm 5 mps 765 mmHg 68%
    17:00 +21°C° 0 mm 5 mps 765 mmHg 70%
    18:00 +21°C° 0 mm 5 mps 765 mmHg 72%
    19:00 +21°C° 0 mm 5 mps 765 mmHg 73%
    20:00 +21°C° 0 mm 4 mps 765 mmHg 75%
    21:00 +20°C° 0 mm 4 mps 765 mmHg 76%
    22:00 +19°C° 0 mm 4 mps 765 mmHg 77%
    23:00 +19°C° 0 mm 4 mps 765 mmHg 79%

    23 July, Tuesday

    Time Temperature Precipitation Wind Pressure Humidity
    00:00 +19°C° 0 mm 4 mps 765 mmHg 80%
    01:00 +19°C° 0 mm 3 mps 765 mmHg 82%
    02:00 +18°C° 0 mm 3 mps 765 mmHg 85%
    03:00 +17°C° 0 mm 3 mps 765 mmHg 88%
    04:00 +17°C° 0 mm 2 mps 765 mmHg 91%
    05:00 +18°C° 0 mm 2 mps 765 mmHg 87%
    06:00 +19°C° 0 mm 3 mps 765 mmHg 83%
    07:00 +19°C° 0 mm 3 mps 765 mmHg 78%
    08:00 +21°C° 0 mm 3 mps 765 mmHg 72%
    09:00 +22°C° 0 mm 3 mps 765 mmHg 65%
    10:00 +24°C° 0 mm 3 mps 765 mmHg 58%
    11:00 +25°C° 0 mm 3 mps 765 mmHg 55%
    12:00 +26°C° 0 mm 3 mps 765 mmHg 53%
    13:00 +27°C° 0 mm 3 mps 765 mmHg 50%
    14:00 +27°C° 0 mm 3 mps 765 mmHg 51%
    15:00 +27°C° 0 mm 3 mps 765 mmHg 52%
    16:00 +26°C° 0 mm 3 mps 765 mmHg 53%
    17:00 +26°C° 0 mm 3 mps 764 mmHg 58%
    18:00 +25°C° 0 mm 2 mps 764 mmHg 62%
    19:00 +25°C° 0 mm 2 mps 764 mmHg 66%
    20:00 +23°C° 0 mm 1 mps 764 mmHg 70%
    21:00 +22°C° 0 mm 1 mps 764 mmHg 75%
    22:00 +19°C° 0 mm 0 mps 764 mmHg 79%
    23:00 +20°C° 0 mm 1 mps 764 mmHg 79%

    24 July, Wednesday

    Time Temperature Precipitation Wind Pressure Humidity
    00:00 +20°C° 0 mm 1 mps 764 mmHg 80%
    01:00 +20°C° 0 mm 1 mps 764 mmHg 80%
    02:00 +20°C° 0 mm 1 mps 764 mmHg 81%
    03:00 +19°C° 0 mm 1 mps 764 mmHg 81%
    04:00 +19°C° 0 mm 1 mps 764 mmHg 82%
    05:00 +20°C° 0 mm 1 mps 764 mmHg 77%
    06:00 +22°C° 0 mm 1 mps 764 mmHg 73%
    07:00 +23°C° 0 mm 1 mps 764 mmHg 68%
    08:00 +24°C° 0 mm 2 mps 764 mmHg 63%
    09:00 +25°C° 0 mm 2 mps 763 mmHg 58%
    10:00 +27°C° 0 mm 2 mps 763 mmHg 53%
    11:00 +27°C° 0 mm 2 mps 763 mmHg 51%
    12:00 +28°C° 0 mm 2 mps 763 mmHg 49%
    13:00 +28°C° 0 mm 3 mps 763 mmHg 47%
    14:00 +28°C° 0 mm 3 mps 762 mmHg 47%
    15:00 +28°C° 0 mm 3 mps 762 mmHg 47%
    16:00 +28°C° 0 mm 3 mps 762 mmHg 46%
    17:00 +27°C° 0 mm 2 mps 762 mmHg 50%
    18:00 +26°C° 0 mm 2 mps 761 mmHg 55%
    19:00 +25°C° 0 mm 2 mps 761 mmHg 59%
    20:00 +24°C° 0 mm 2 mps 761 mmHg 60%
    21:00 +23°C° 0 mm 2 mps 761 mmHg 62%
    22:00 +20°C° 0 mm 2 mps 761 mmHg 64%
    23:00 +20°C° 0 mm 2 mps 761 mmHg 65%
    Show more